Precipitable_Water
0.64 0.74 0.85 0.94 1.03 1.11 1.11 1.12 1.08 1.11 1.21 1.23 1.23 1.20 1.18 1.20 1.19 1.22 1.28 1.33 1.39 1.36 1.33 1.33 1.41 1.36 1.34 1.30 1.29 1.28 1.18 1.08
0.54 0.64 0.73 0.88 1.00 1.09 1.11 1.11 1.12 1.15 1.12 1.13 1.12 1.07 1.15 1.17 1.23 1.28 1.30 1.34 1.44 1.40 1.39 1.40 1.42 1.34 1.35 1.34 1.30 1.21 1.10 1.05
0.41 0.48 0.60 0.76 0.87 0.97 1.06 1.12 1.17 1.15 1.16 1.16 1.21 1.19 1.20 1.27 1.30 1.29 1.32 1.36 1.47 1.43 1.43 1.43 1.41 1.34 1.36 1.30 1.29 1.16 1.08 1.04
0.36 0.43 0.47 0.61 0.78 0.89 0.96 1.03 1.11 1.12 1.17 1.24 1.28 1.30 1.27 1.24 1.23 1.25 1.29 1.39 1.48 1.48 1.47 1.48 1.46 1.39 1.34 1.30 1.27 1.21 1.09 1.05
0.33 0.39 0.45 0.49 0.61 0.83 0.96 1.05 1.16 1.27 1.27 1.17 1.12 1.04 1.03 1.07 1.18 1.29 1.33 1.41 1.49 1.52 1.49 1.49 1.46 1.45 1.40 1.35 1.33 1.24 1.19 1.04
0.30 0.34 0.43 0.48 0.51 0.60 0.74 0.90 1.04 1.13 1.24 1.23 1.19 1.12 1.09 1.19 1.22 1.25 1.33 1.40 1.48 1.54 1.52 1.52 1.45 1.45 1.48 1.44 1.37 1.25 1.18 1.08
0.38 0.38 0.42 0.47 0.52 0.57 0.62 0.69 0.81 0.97 1.06 1.16 1.16 1.11 1.15 1.16 1.15 1.14 1.22 1.33 1.43 1.55 1.59 1.53 1.48 1.45 1.50 1.47 1.44 1.33 1.20 1.11
0.48 0.45 0.42 0.47 0.53 0.56 0.61 0.69 0.75 0.88 0.97 1.02 1.03 1.02 1.07 1.10 1.12 1.14 1.18 1.20 1.33 1.46 1.51 1.49 1.48 1.47 1.50 1.48 1.41 1.32 1.18 1.07
0.56 0.57 0.54 0.51 0.52 0.57 0.60 0.65 0.70 0.82 0.88 0.92 0.98 1.03 1.05 1.09 1.11 1.13 1.17 1.20 1.32 1.48 1.50 1.52 1.53 1.51 1.56 1.49 1.37 1.27 1.21 1.05
0.55 0.57 0.60 0.60 0.57 0.56 0.58 0.61 0.67 0.73 0.81 0.83 0.91 1.02 1.04 1.05 1.13 1.18 1.19 1.24 1.37 1.43 1.45 1.51 1.53 1.52 1.56 1.48 1.33 1.25 1.16 1.05
0.47 0.54 0.57 0.60 0.62 0.64 0.62 0.61 0.63 0.67 0.73 0.83 0.86 0.90 0.99 1.09 1.16 1.10 1.14 1.20 1.38 1.43 1.39 1.48 1.49 1.50 1.53 1.45 1.32 1.23 1.12 1.07
0.42 0.51 0.53 0.56 0.62 0.65 0.66 0.67 0.69 0.73 0.76 0.80 0.86 0.89 0.98 1.08 1.13 1.14 1.16 1.23 1.37 1.42 1.38 1.46 1.45 1.42 1.44 1.42 1.30 1.20 1.11 1.06
0.36 0.42 0.44 0.52 0.58 0.62 0.63 0.68 0.78 0.87 0.94 0.87 0.90 0.98 1.04 1.07 1.10 1.17 1.19 1.26 1.40 1.38 1.36 1.36 1.33 1.33 1.33 1.27 1.19 1.16 1.10 1.01
0.39 0.37 0.41 0.49 0.54 0.61 0.67 0.73 0.81 0.96 1.12 1.05 1.04 1.05 1.10 1.13 1.13 1.19 1.25 1.33 1.34 1.33 1.33 1.31 1.28 1.26 1.26 1.18 1.12 1.13 1.07 0.98
0.37 0.35 0.41 0.43 0.50 0.58 0.64 0.70 0.82 1.01 1.11 1.25 1.21 1.20 1.24 1.26 1.24 1.24 1.37 1.38 1.34 1.28 1.30 1.34 1.31 1.26 1.22 1.12 1.09 1.11 1.10 1.04
0.29 0.37 0.37 0.40 0.44 0.51 0.59 0.68 0.79 0.91 1.12 1.15 1.34 1.34 1.37 1.37 1.35 1.38 1.38 1.32 1.30 1.26 1.29 1.26 1.24 1.23 1.19 1.12 1.10 1.10 1.03 0.99
0.33 0.33 0.35 0.37 0.40 0.47 0.50 0.60 0.73 0.89 1.01 1.07 1.21 1.37 1.37 1.34 1.33 1.33 1.31 1.26 1.25 1.24 1.25 1.22 1.17 1.18 1.15 1.09 1.13 1.07 1.05 0.97
0.38 0.33 0.33 0.34 0.38 0.45 0.47 0.55 0.69 0.85 0.96 1.06 1.11 1.26 1.36 1.31 1.26 1.25 1.21 1.17 1.22 1.22 1.22 1.18 1.14 1.15 1.11 1.07 1.06 1.03 1.03 0.93
0.38 0.39 0.38 0.37 0.41 0.42 0.48 0.55 0.62 0.76 0.91 1.08 1.03 1.12 1.28 1.34 1.28 1.20 1.18 1.17 1.18 1.20 1.18 1.16 1.16 1.15 1.10 1.05 1.03 1.02 0.97 0.93
Wind_Speed
27 27 29 29 29 28 26 25 24 23 22 22 22 23 23 23 24 24 25 25 25 25 24 23 23 22 22 21 20 20 20 19
29 29 29 30 30 30 30 29 28 26 25 25 24 26 26 26 26 26 27 27 26 26 26 26 25 24 23 22 21 21 20 19
31 30 30 30 31 32 32 32 31 31 30 29 27 27 27 28 28 28 28 28 27 27 27 27 27 26 25 25 24 22 21 21
31 30 29 29 32 32 33 34 35 33 33 31 30 29 29 29 30 30 30 30 29 28 28 28 29 29 28 27 26 25 23 23
31 30 30 29 28 32 34 37 37 37 35 34 34 33 32 32 32 31 31 31 31 30 30 29 30 31 31 30 29 27 25 24
32 31 30 30 30 31 33 35 37 39 40 40 38 37 36 33 33 33 33 33 33 32 32 32 31 33 34 33 31 29 28 26
32 32 31 31 29 29 31 33 36 37 39 41 42 41 40 38 35 34 34 34 34 34 34 34 33 33 35 34 32 31 30 29
32 33 33 33 33 34 34 34 35 37 39 40 41 40 40 41 39 37 36 34 35 36 35 35 34 34 34 33 33 33 31 30
36 35 37 38 38 38 38 39 40 39 41 43 43 42 41 41 40 39 38 37 36 35 36 35 35 34 34 34 33 33 33 31
36 38 38 39 40 42 43 43 44 44 45 45 45 44 44 43 41 40 39 37 36 35 35 35 35 35 34 34 33 33 33 32
36 35 37 41 42 42 43 44 46 47 47 47 47 46 46 45 43 42 41 38 37 36 34 33 31 31 30 31 32 33 33 33
37 37 37 38 38 40 42 44 45 46 47 47 46 45 44 44 44 42 41 39 38 36 33 33 32 29 29 28 31 33 33 33
37 37 37 36 37 38 38 40 43 44 47 46 46 44 44 44 43 42 40 39 37 36 34 33 32 30 29 30 30 32 32 33
39 37 36 36 36 37 37 38 40 41 42 41 42 43 43 41 40 40 40 39 37 35 34 33 32 30 29 29 28 31 30 31
38 39 37 37 37 36 36 38 37 37 36 36 38 39 40 39 39 39 40 39 37 35 34 33 32 30 29 28 28 28 29 27
39 38 38 37 37 36 36 36 37 35 34 32 35 34 36 37 38 40 39 38 37 35 34 32 31 31 30 28 28 27 28 27
38 38 38 38 37 37 37 37 36 36 34 32 31 34 34 37 37 37 37 37 37 35 34 32 31 31 30 30 29 27 27 29
37 37 37 38 38 37 37 37 37 37 38 34 31 33 37 37 37 37 37 37 37 36 34 33 31 31 30 29 28 29 28 28
37 39 39 39 39 38 38 37 37 36 38 39 36 33 35 37 38 38 36 36 35 34 33 32 31 31 30 28 28 28 28 28
Wind_Direction
264 264 261 257 255 253 252 252 253 253 254 254 254 255 255 256 257 257 258 258 259 259 260 261 261 261 260 259 259 263 265 265
267 268 267 258 256 253 250 250 251 252 253 254 255 255 257 258 259 260 260 259 260 259 260 259 260 258 256 256 259 260 262 262
270 270 269 263 257 254 250 249 250 252 254 255 256 258 259 260 261 262 260 259 260 260 259 259 258 256 254 254 256 259 262 259
270 271 271 269 259 257 251 249 251 252 253 254 255 259 260 261 261 261 261 259 260 260 260 259 257 255 253 253 254 255 258 260
268 269 270 270 266 259 255 253 254 252 251 252 252 257 258 261 261 261 260 259 259 259 260 260 259 255 253 252 253 254 256 259
270 270 269 270 267 263 261 259 256 253 251 252 255 257 259 263 262 261 260 259 258 259 260 260 260 257 254 251 251 252 255 258
271 270 268 269 268 266 265 262 259 257 255 253 254 257 258 259 260 261 259 259 257 258 260 260 260 260 256 253 252 251 254 258
272 272 270 269 268 267 265 265 264 262 258 256 255 257 258 257 258 259 258 259 257 258 259 259 261 262 257 255 252 250 253 257
273 273 270 270 269 268 266 266 266 266 262 259 257 258 258 258 257 257 258 258 257 257 257 259 261 263 259 254 253 252 253 258
277 274 273 272 271 270 267 267 267 268 265 263 259 257 257 256 256 255 256 257 257 256 257 259 261 263 260 253 252 252 254 257
280 279 278 274 272 271 270 267 268 269 267 263 259 257 255 253 253 253 253 255 255 254 256 256 259 263 258 253 252 253 254 256
283 280 280 280 275 273 272 270 269 270 270 263 258 256 254 251 251 250 250 253 252 252 255 254 257 262 258 257 255 254 254 255
285 282 283 282 279 275 274 274 272 273 271 263 257 254 251 248 247 247 248 251 249 251 253 254 256 259 259 259 258 258 254 255
283 284 283 283 283 280 277 276 276 275 274 262 256 252 247 246 244 245 245 247 247 249 251 252 254 254 259 261 262 259 250 260
283 284 282 283 283 282 280 277 276 276 274 263 256 250 244 242 243 243 246 244 245 248 251 252 251 253 257 258 261 259 257 255
284 283 283 283 283 283 282 281 274 273 271 266 255 250 243 240 241 243 242 242 244 247 250 250 250 252 255 258 259 258 256 259
282 283 284 284 284 283 282 279 277 268 267 263 258 248 243 241 242 240 240 241 245 248 247 248 251 253 251 256 256 260 257 261
281 283 284 285 285 285 282 280 278 269 262 258 257 251 244 241 240 240 241 243 244 246 248 248 250 251 250 255 255 258 258 267
279 283 285 286 285 284 282 280 278 271 262 254 255 254 247 243 241 242 242 244 244 244 246 248 250 249 248 254 258 258 261 265